Location: Casco Volunteer Fire Department
(44.5576°N, 87.6146°W)
Time: 17:08:07
(UTC+00:00)

ARIANE 5 R/B - Visible Passes

Search period start: 11 April 2026 00:00
Search period end: 21 April 2026 00:00
Orbit: 747 x 792 km, 98.8° (Epoch: 11 April)

Date Brightness Start Highest point End Pass type
(mag) Time Alt. Az. Time Alt. Az. Time Alt. Az.
11 Apr 5.9 01:30:01 10° W 01:31:06 11° W 01:32:11 10° WNW visible
14 Apr 5.6 01:20:51 10° WSW 01:23:10 13° W 01:25:31 10° WNW visible
17 Apr 5.4 01:12:13 10° SW 01:15:16 16° W 01:18:20 10° NW visible
